EN

Hourly Weather Abbey

Today, 12 June, Saturday

Time Temperature Precipitation Wind Pressure Humidity
00:00 +13°C° 0 mm 3 mps 699 mmHg 50%
01:00 +12°C° 0 mm 3 mps 699 mmHg 51%
02:00 +12°C° 0 mm 4 mps 699 mmHg 52%
03:00 +12°C° 0 mm 4 mps 699 mmHg 54%
04:00 +11°C° 0 mm 3 mps 699 mmHg 56%
05:00 +11°C° 0 mm 3 mps 700 mmHg 59%
06:00 +13°C° 0 mm 4 mps 700 mmHg 55%
07:00 +15°C° 0 mm 4 mps 700 mmHg 50%
08:00 +17°C° 0 mm 5 mps 701 mmHg 46%
09:00 +19°C° 0 mm 6 mps 701 mmHg 44%
10:00 +20°C° 0 mm 7 mps 701 mmHg 41%
11:00 +21°C° 0 mm 8 mps 701 mmHg 39%
12:00 +21°C° 0 mm 7 mps 701 mmHg 37%
13:00 +22°C° 0 mm 7 mps 701 mmHg 35%
14:00 +23°C° 0 mm 6 mps 700 mmHg 33%
15:00 +23°C° 0 mm 5 mps 700 mmHg 34%
16:00 +23°C° 0 mm 5 mps 700 mmHg 36%
17:00 +22°C° 0 mm 4 mps 700 mmHg 37%
18:00 +21°C° 0 mm 4 mps 701 mmHg 41%
19:00 +20°C° 0 mm 3 mps 701 mmHg 44%
20:00 +19°C° 0 mm 3 mps 702 mmHg 48%
21:00 +18°C° 0 mm 3 mps 702 mmHg 46%
22:00 +17°C° 0 mm 2 mps 702 mmHg 45%
23:00 +16°C° 0 mm 2 mps 702 mmHg 43%

Tomorrow, 13 June, Sunday

Time Temperature Precipitation Wind Pressure Humidity
00:00 +16°C° 0 mm 2 mps 702 mmHg 44%
01:00 +14°C° 0 mm 3 mps 703 mmHg 45%
02:00 +14°C° 0 mm 3 mps 703 mmHg 46%
03:00 +13°C° 0 mm 3 mps 703 mmHg 49%
04:00 +13°C° 0 mm 3 mps 703 mmHg 53%
05:00 +14°C° 0 mm 2 mps 703 mmHg 56%
06:00 +16°C° 0 mm 3 mps 704 mmHg 50%
07:00 +18°C° 0 mm 3 mps 704 mmHg 45%
08:00 +20°C° 0 mm 3 mps 704 mmHg 40%
09:00 +22°C° 0 mm 4 mps 704 mmHg 35%
10:00 +25°C° 0 mm 4 mps 704 mmHg 30%
11:00 +27°C° 0 mm 5 mps 704 mmHg 24%
12:00 +28°C° 0 mm 5 mps 704 mmHg 25%
13:00 +28°C° 0 mm 5 mps 704 mmHg 25%
14:00 +29°C° 0 mm 5 mps 703 mmHg 25%
15:00 +30°C° 0 mm 5 mps 703 mmHg 25%
16:00 +30°C° 0 mm 5 mps 703 mmHg 26%
17:00 +30°C° 0 mm 5 mps 702 mmHg 27%
18:00 +29°C° 0 mm 5 mps 702 mmHg 33%
19:00 +27°C° 0 mm 4 mps 702 mmHg 39%
20:00 +25°C° 0 mm 4 mps 701 mmHg 45%
21:00 +23°C° 0 mm 4 mps 701 mmHg 47%
22:00 +22°C° 0 mm 4 mps 702 mmHg 49%
23:00 +21°C° 0 mm 4 mps 702 mmHg 51%

Day after tomorrow, 14 June, Monday

Time Temperature Precipitation Wind Pressure Humidity
00:00 +21°C° 0 mm 4 mps 702 mmHg 51%
01:00 +20°C° 0 mm 4 mps 701 mmHg 52%
02:00 +20°C° 0 mm 4 mps 701 mmHg 52%
03:00 +19°C° 0 mm 4 mps 701 mmHg 54%
04:00 +19°C° 0 mm 4 mps 701 mmHg 56%
05:00 +19°C° 0 mm 4 mps 701 mmHg 59%
06:00 +21°C° 0 mm 5 mps 701 mmHg 54%
07:00 +23°C° 0 mm 5 mps 701 mmHg 49%
08:00 +27°C° 0 mm 6 mps 702 mmHg 44%
09:00 +29°C° 0 mm 6 mps 702 mmHg 39%
10:00 +32°C° 0 mm 6 mps 702 mmHg 34%
11:00 +35°C° 0 mm 7 mps 702 mmHg 29%
12:00 +36°C° 0 mm 7 mps 702 mmHg 26%
13:00 +38°C° 0 mm 7 mps 702 mmHg 24%
14:00 +39°C° 0 mm 7 mps 702 mmHg 21%
15:00 +39°C° 0 mm 7 mps 702 mmHg 23%
16:00 +38°C° 0 mm 6 mps 702 mmHg 24%
17:00 +38°C° 0 mm 6 mps 701 mmHg 26%
18:00 +35°C° 0 mm 6 mps 701 mmHg 33%
19:00 +33°C° 0 mm 5 mps 701 mmHg 40%
20:00 +30°C° 0 mm 5 mps 701 mmHg 47%
21:00 +29°C° 0 mm 6 mps 701 mmHg 46%
22:00 +29°C° 0 mm 7 mps 701 mmHg 46%
23:00 +28°C° 0 mm 8 mps 701 mmHg 45%

15 June, Tuesday

Time Temperature Precipitation Wind Pressure Humidity
00:00 +27°C° 0 mm 8 mps 701 mmHg 48%
01:00 +26°C° 0 mm 7 mps 701 mmHg 51%
02:00 +24°C° 0 mm 7 mps 700 mmHg 53%
03:00 +24°C° 0 mm 6 mps 700 mmHg 56%
04:00 +23°C° 0 mm 6 mps 700 mmHg 59%
05:00 +23°C° 0 mm 6 mps 699 mmHg 62%
06:00 +24°C° 0 mm 7 mps 699 mmHg 59%
07:00 +27°C° 0 mm 8 mps 699 mmHg 56%
08:00 +28°C° 0 mm 9 mps 699 mmHg 53%
09:00 +31°C° 0 mm 9 mps 699 mmHg 47%
10:00 +34°C° 0 mm 8 mps 699 mmHg 41%
11:00 +37°C° 0 mm 8 mps 699 mmHg 36%
12:00 +38°C° 0 mm 8 mps 698 mmHg 33%
13:00 +39°C° 0 mm 9 mps 698 mmHg 31%
14:00 +40°C° 0 mm 9 mps 698 mmHg 28%
15:00 +39°C° 0 mm 8 mps 697 mmHg 29%
16:00 +39°C° 0 mm 8 mps 697 mmHg 29%
17:00 +39°C° 0 mm 8 mps 697 mmHg 30%
18:00 +35°C° 0 mm 8 mps 697 mmHg 33%
19:00 +33°C° 0 mm 7 mps 697 mmHg 36%
20:00 +29°C° 0 mm 6 mps 697 mmHg 39%
21:00 +28°C° 0 mm 8 mps 697 mmHg 37%
22:00 +27°C° 0 mm 9 mps 698 mmHg 35%
23:00 +26°C° 0 mm 10 mps 699 mmHg 33%

16 June, Wednesday

Time Temperature Precipitation Wind Pressure Humidity
00:00 +23°C° 0.2 mm 10 mps 699 mmHg 32%
01:00 +22°C° 0.2 mm 10 mps 699 mmHg 31%
02:00 +19°C° 0.2 mm 9 mps 699 mmHg 31%
03:00 +18°C° 0 mm 10 mps 699 mmHg 34%
04:00 +17°C° 0 mm 10 mps 698 mmHg 37%
05:00 +16°C° 0 mm 11 mps 698 mmHg 39%
06:00 +17°C° 0 mm 12 mps 698 mmHg 39%
07:00 +18°C° 0 mm 12 mps 698 mmHg 39%
08:00 +18°C° 0 mm 13 mps 698 mmHg 39%
09:00 +19°C° 0 mm 11 mps 698 mmHg 38%
10:00 +21°C° 0 mm 9 mps 699 mmHg 37%
11:00 +22°C° 0 mm 7 mps 699 mmHg 36%
12:00 +23°C° 0 mm 8 mps 699 mmHg 33%
13:00 +24°C° 0 mm 8 mps 699 mmHg 30%
14:00 +26°C° 0 mm 9 mps 699 mmHg 26%
15:00 +27°C° 0 mm 9 mps 698 mmHg 25%
16:00 +27°C° 0 mm 9 mps 698 mmHg 24%
17:00 +28°C° 0 mm 10 mps 697 mmHg 22%
18:00 +24°C° 0 mm 10 mps 698 mmHg 29%
19:00 +21°C° 0 mm 11 mps 698 mmHg 36%
20:00 +17°C° 0 mm 11 mps 699 mmHg 43%
21:00 +16°C° 0 mm 11 mps 699 mmHg 49%
22:00 +13°C° 0 mm 11 mps 699 mmHg 55%
23:00 +12°C° 0 mm 10 mps 700 mmHg 61%

17 June, Thursday

Time Temperature Precipitation Wind Pressure Humidity
00:00 +12°C° 0 mm 11 mps 700 mmHg 62%
01:00 +11°C° 0 mm 11 mps 700 mmHg 64%
02:00 +11°C° 0 mm 11 mps 700 mmHg 65%
03:00 +11°C° 0 mm 11 mps 700 mmHg 65%
04:00 +12°C° 0 mm 11 mps 701 mmHg 65%
05:00 +12°C° 0 mm 12 mps 701 mmHg 65%
06:00 +12°C° 0 mm 12 mps 702 mmHg 65%
07:00 +12°C° 0 mm 12 mps 702 mmHg 65%
08:00 +12°C° 0 mm 12 mps 703 mmHg 65%
09:00 +11°C° 0 mm 11 mps 703 mmHg 67%
10:00 +11°C° 0 mm 11 mps 704 mmHg 70%
11:00 +11°C° 0 mm 10 mps 705 mmHg 72%
12:00 +12°C° 0 mm 10 mps 705 mmHg 69%
13:00 +13°C° 0 mm 10 mps 706 mmHg 65%
14:00 +14°C° 0 mm 10 mps 706 mmHg 61%
15:00 +16°C° 0 mm 10 mps 707 mmHg 57%
16:00 +17°C° 0 mm 9 mps 707 mmHg 53%
17:00 +17°C° 0 mm 9 mps 707 mmHg 49%
18:00 +16°C° 0 mm 8 mps 707 mmHg 51%
19:00 +15°C° 0 mm 6 mps 707 mmHg 54%
20:00 +15°C° 0 mm 4 mps 708 mmHg 57%
21:00 +14°C° 0 mm 4 mps 708 mmHg 60%
22:00 +13°C° 0 mm 4 mps 708 mmHg 64%
23:00 +12°C° 0 mm 4 mps 708 mmHg 67%
Show more